TimeEDT,TemperatureF,Dew PointF,Humidity,Sea Level PressureIn,VisibilityMPH,Wind Direction,Wind SpeedMPH,Gust SpeedMPH,PrecipitationIn,Events,Conditions,WindDirDegrees,DateUTC
12:51 AM,64.9,63.0,93,29.75,9.0,WNW,3.5,-,N/A,,Clear,290,2013-09-22 04:51:00
1:51 AM,64.0,63.0,96,29.76,8.0,Calm,Calm,-,N/A,,Clear,0,2013-09-22 05:51:00
2:51 AM,63.0,62.1,97,29.76,8.0,WNW,3.5,-,N/A,,Clear,300,2013-09-22 06:51:00
3:51 AM,63.0,61.0,93,29.76,8.0,NW,4.6,-,N/A,,Clear,320,2013-09-22 07:51:00
4:51 AM,62.1,61.0,96,29.76,7.0,NNW,3.5,-,N/A,,Clear,330,2013-09-22 08:51:00
5:51 AM,61.0,60.1,97,29.78,7.0,Calm,Calm,-,N/A,,Clear,0,2013-09-22 09:51:00
6:51 AM,60.1,59.0,96,29.79,7.0,Calm,Calm,-,0.02,,Clear,0,2013-09-22 10:51:00
7:51 AM,61.0,59.0,93,29.81,6.0,Calm,Calm,-,N/A,,Clear,0,2013-09-22 11:51:00
8:51 AM,64.9,61.0,87,29.82,8.0,Calm,Calm,-,N/A,,Clear,0,2013-09-22 12:51:00
9:51 AM,66.9,63.0,87,29.83,8.0,NE,3.5,-,N/A,,Clear,50,2013-09-22 13:51:00
10:04 AM,68.0,64.4,88,29.85,8.0,NE,4.6,-,N/A,,Scattered Clouds,50,2013-09-22 14:04:00
10:22 AM,68.0,64.4,88,29.85,7.0,ENE,4.6,-,N/A,,Mostly Cloudy,70,2013-09-22 14:22:00
10:49 AM,69.8,64.4,83,29.85,8.0,ENE,4.6,-,N/A,,Scattered Clouds,60,2013-09-22 14:49:00
10:51 AM,70.0,64.0,81,29.84,8.0,NE,5.8,-,N/A,,Scattered Clouds,50,2013-09-22 14:51:00
11:51 AM,73.9,61.0,64,29.84,9.0,ENE,6.9,-,N/A,,Clear,70,2013-09-22 15:51:00
12:51 PM,75.0,61.0,62,29.85,9.0,ENE,5.8,-,N/A,,Partly Cloudy,60,2013-09-22 16:51:00
1:51 PM,77.0,60.1,56,29.83,9.0,East,3.5,-,N/A,,Mostly Cloudy,90,2013-09-22 17:51:00
2:51 PM,80.1,59.0,48,29.81,9.0,Variable,3.5,-,N/A,,Partly Cloudy,0,2013-09-22 18:51:00
3:51 PM,80.1,57.9,47,29.80,9.0,Calm,Calm,-,N/A,,Clear,0,2013-09-22 19:51:00
4:51 PM,77.0,61.0,58,29.81,9.0,Calm,Calm,-,N/A,,Partly Cloudy,0,2013-09-22 20:51:00
5:51 PM,78.1,61.0,56,29.81,9.0,Calm,Calm,-,N/A,,Clear,0,2013-09-22 21:51:00
6:51 PM,73.9,62.1,66,29.81,9.0,Calm,Calm,-,N/A,,Clear,0,2013-09-22 22:51:00
7:51 PM,70.0,63.0,78,29.82,9.0,Calm,Calm,-,N/A,,Mostly Cloudy,0,2013-09-22 23:51:00
8:51 PM,69.1,63.0,81,29.85,9.0,Calm,Calm,-,N/A,,Mostly Cloudy,0,2013-09-23 00:51:00
9:51 PM,66.9,62.1,84,29.86,9.0,Calm,Calm,-,N/A,,Clear,0,2013-09-23 01:51:00
10:51 PM,64.9,63.0,93,29.87,8.0,East,3.5,-,N/A,,Clear,90,2013-09-23 02:51:00
11:51 PM,64.0,60.1,87,29.88,9.0,Calm,Calm,-,N/A,,Clear,0,2013-09-23 03:51:00